Location: Kitt Peak
(31.9633°N, 111.6000°W)
Time: 10:08:32
(UTC-07:00)

Amateur Radio Satellites - All Passes

Search period start: 16 January 2018 09:38
Search period end: 17 January 2018 09:38
Location: Kitt Peak, 31.9633°N, 111.6000°W

Satellite Date Start Highest point End Downlink Frequencies (MHz)
Time Altitude Azimuth
DELFI C3 16 Jan 09:49:11 09:53:05 68° 101° (E) 09:56:58 145.870
BEESAT 3 16 Jan 09:58:33 10:01:17 18° 110° (ESE) 10:04:03 437.485
Max Valier Satellite 16 Jan 10:00:20 10:03:59 59° 100° (E) 10:07:37 145.860
PCSat 16 Jan 10:00:54 10:05:11 25° 106° (ESE) 10:09:30 145.827
FALCONSAT 3 16 Jan 10:28:10 10:31:51 82° 16° (NNE) 10:35:31 435.103
EO-88 16 Jan 10:31:47 10:35:24 77° 284° (WNW) 10:39:00 145.990 - 145.960
BEESAT 2 16 Jan 10:35:39 10:36:25 10° 107° (ESE) 10:37:11 435.950
TIGRISAT 16 Jan 10:42:22 10:44:46 15° 267° (W) 10:47:13 435.000
POLYITAN 1 16 Jan 10:45:26 10:47:46 15° 68° (ENE) 10:50:07 437.675
ESTCUBE 1 16 Jan 10:51:45 10:54:08 14° 94° (E) 10:56:31 437.505/2401.250
RS-15 16 Jan 10:52:57 11:03:55 36° 312° (NW) 11:14:50 29.354- 29.394
JUGNU 16 Jan 11:00:42 11:02:53 12° 163° (SSE) 11:05:05 437.505
NANOSAT C BR1 16 Jan 11:05:07 11:08:22 22° 70° (ENE) 11:11:37 145.865
AIST 2D 16 Jan 11:06:07 11:09:38 71° 259° (W) 11:13:09 435.315
PRISM 16 Jan 11:07:27 11:10:58 28° 262° (W) 11:14:30 437.425
YUBILEINY 16 Jan 11:07:52 11:16:37 75° 83° (E) 11:25:16 435.215
QB50P2 16 Jan 11:12:55 11:16:45 36° 73° (ENE) 11:20:38 145.880/145.840
BEESAT 3 16 Jan 11:35:09 11:38:34 27° 303° (WNW) 11:42:01 437.485
O/OREOS (USA 219) 16 Jan 11:37:04 11:41:25 49° 69° (ENE) 11:45:45 437.305
PCSat 16 Jan 11:43:26 11:48:20 35° 301° (WNW) 11:53:16 145.827
EO-79 16 Jan 11:45:22 11:49:33 84° 80° (E) 11:53:47 145.935-145.965
DUCHIFAT 1 16 Jan 11:50:51 11:54:59 71° 77° (ENE) 11:59:11 145.980
SPROUT 16 Jan 11:51:41 11:54:03 14° 94° (E) 11:56:25 437.525
FALCONSAT 3 16 Jan 12:07:39 12:10:42 25° 209° (SSW) 12:13:45 435.103
LO-87 16 Jan 12:07:57 12:11:17 36° 285° (WNW) 12:14:37 145.935 - 145.965
BEESAT 2 16 Jan 12:09:48 12:13:38 46° 301° (WNW) 12:17:32 435.950
POLYITAN 1 16 Jan 12:19:19 12:23:10 35° 262° (W) 12:27:04 437.675
AO-85 16 Jan 12:20:23 12:23:22 21° 110° (ESE) 12:26:27 145.980
ESTCUBE 1 16 Jan 12:26:51 12:31:02 39° 286° (WNW) 12:35:11 437.505/2401.250
NANOSAT C BR1 16 Jan 12:40:35 12:43:54 22° 264° (W) 12:47:14 145.865
JUGNU 16 Jan 12:46:54 12:51:15 22° 172° (S) 12:55:37 437.505
VELOX 1 16 Jan 12:49:10 12:53:14 37° 99° (E) 12:57:19 145.980
Oscar 19 16 Jan 12:50:19 12:55:12 44° 73° (ENE) 13:00:07 437.125/150
QB50P2 16 Jan 12:50:29 12:52:37 14° 266° (W) 12:54:45 145.880/145.840
AO-91 16 Jan 13:03:15 13:06:37 54° 76° (ENE) 13:09:55 145.960
YUBILEINY 16 Jan 13:07:07 13:12:21 18° 279° (W) 13:17:34 435.215
BUGSAT 1 16 Jan 13:12:47 13:16:43 54° 259° (W) 13:20:43 437.445
RS-15 16 Jan 13:18:38 13:21:44 11° 343° (NNW) 13:24:50 29.354- 29.394
O/OREOS (USA 219) 16 Jan 13:19:11 13:20:17 11° 262° (W) 13:21:23 437.305
DX 1 16 Jan 13:22:51 13:25:20 15° 95° (E) 13:27:48 434.975-435.025
SPROUT 16 Jan 13:26:04 13:29:59 35° 287° (WNW) 13:33:53 437.525
Gurwin Techsat 1B 16 Jan 13:34:21 13:39:40 90° 216° (SW) 13:45:01 435.225
AO-7 16 Jan 13:38:31 13:44:32 23° 59° (ENE) 13:50:34 .
AO-85 16 Jan 14:00:27 14:03:36 22° 306° (NW) 14:06:52 145.980
50 SAT 16 Jan 14:02:20 14:05:18 40° 100° (E) 14:08:14 437.505
VELOX 1 16 Jan 14:26:49 14:29:18 15° 292° (WNW) 14:31:49 145.980
Oscar 19 16 Jan 14:31:17 14:34:38 17° 266° (W) 14:38:00 437.125/150
JUGNU 16 Jan 14:34:59 14:39:41 25° 182° (S) 14:44:23 437.505
SRMSAT 16 Jan 14:46:23 14:50:07 17° 166° (SSE) 14:53:53 437.500
UKube-1 16 Jan 14:56:20 15:00:36 65° 285° (WNW) 15:04:51 .
DX 1 16 Jan 14:57:37 15:01:33 35° 288° (WNW) 15:05:30 434.975-435.025
BEESAT 16 Jan 14:58:49 15:01:53 17° 95° (E) 15:04:56 436.000
ITAMSAT 1 16 Jan 15:24:23 15:29:30 69° 75° (ENE) 15:34:39 435.822/435.867
CUBESAT XI-V 16 Jan 15:25:00 15:27:02 13° 93° (E) 15:29:04 437.345
AO-7 16 Jan 15:28:11 15:36:28 70° 255° (WSW) 15:44:51 .
MOZHAYETS 4 16 Jan 15:33:05 15:37:44 81° 100° (E) 15:42:20
RS-15 16 Jan 15:37:25 15:42:31 13° 24° (NNE) 15:47:31 29.354- 29.394
SO-50 16 Jan 15:48:06 15:52:38 45° 59° (ENE) 15:57:13 436.795
ITUPSAT 1 16 Jan 15:51:50 15:56:39 67° 102° (ESE) 16:01:25 437.325
M-CUBED/EXP-1 PRIME 16 Jan 15:51:58 15:56:18 46° 70° (ENE) 16:00:27 437.505
DOVE 4 16 Jan 15:53:29 15:57:11 26° 73° (ENE) 16:00:45 437.250
JUGNU 16 Jan 16:24:06 16:28:06 19° 192° (SSW) 16:32:08 437.505
SRMSAT 16 Jan 16:33:56 16:38:42 25° 176° (S) 16:43:29 437.500
BEESAT 16 Jan 16:35:18 16:39:43 38° 288° (WNW) 16:44:08 436.000
XW-2B 16 Jan 16:51:19 16:53:04 13° 69° (ENE) 16:54:49 145.730 - 145.750
HO-68 16 Jan 16:56:18 16:59:06 13° 58° (ENE) 17:01:55 435.675
CUBESAT XI-V 16 Jan 17:00:10 17:04:34 45° 286° (WNW) 17:08:56 437.345
ITAMSAT 1 16 Jan 17:08:43 17:09:20 10° 268° (W) 17:09:56 435.822/435.867
LilacSat-2 16 Jan 17:11:00 17:14:15 26° 73° (ENE) 17:17:32 437.200
NO-84 16 Jan 17:12:54 17:14:31 13° 124° (SE) 17:16:05 435.350 FM
XW-2C 16 Jan 17:19:28 17:22:51 31° 74° (ENE) 17:26:15 145.795 - 145.815
M-CUBED/EXP-1 PRIME 16 Jan 17:28:35 17:30:42 13° 261° (W) 17:32:46 437.505
SO-50 16 Jan 17:29:56 17:32:43 16° 251° (WSW) 17:35:31 436.795
DOVE 4 16 Jan 17:31:29 17:34:47 20° 263° (W) 17:38:00 437.250
ITUPSAT 1 16 Jan 17:33:02 17:33:49 10° 296° (WNW) 17:34:37 437.325
KKS-1 16 Jan 17:37:56 17:42:20 59° 101° (E) 17:46:42 437.445
CUTE 1.7 + AOD 2 16 Jan 17:39:35 17:41:54 14° 69° (ENE) 17:44:13 437.475
RS-15 16 Jan 17:47:59 17:59:06 47° 53° (NE) 18:09:36 29.354- 29.394
XW-2F 16 Jan 18:00:14 18:04:02 75° 259° (WSW) 18:07:51 145.980 - 146.000
CUTE-I 16 Jan 18:01:35 18:06:55 83° 76° (ENE) 18:12:14 437.470
XW-2D 16 Jan 18:05:40 18:09:25 54° 260° (W) 18:13:11 145.860 - 145.880
KAITUO 1B 16 Jan 18:07:12 18:10:59 83° 259° (W) 18:14:46 145.475/437.950
STARS 16 Jan 18:08:03 18:12:18 46° 100° (E) 18:16:33 437.465
SRMSAT 16 Jan 18:22:40 18:27:20 24° 186° (S) 18:32:01 437.500
XW-2B 16 Jan 18:23:24 18:26:52 32° 262° (W) 18:30:20 145.730 - 145.750
NUDT-PHONESAT 16 Jan 18:27:30 18:31:05 44° 261° (W) 18:34:40 437.300
CUBEBUG 2 16 Jan 18:35:07 18:39:05 40° 74° (ENE) 18:43:13 437.445
HO-68 16 Jan 18:38:35 18:45:45 84° 74° (ENE) 18:52:56 435.675
LilacSat-2 16 Jan 18:46:07 18:48:28 15° 265° (W) 18:50:50 437.200
NO-84 16 Jan 18:48:48 18:51:29 27° 315° (NW) 18:54:03 435.350 FM
UWE-3 16 Jan 18:50:51 18:54:43 33° 72° (ENE) 18:58:41 435.000/436.395/437.385
XW-2C 16 Jan 18:55:14 18:57:02 13° 266° (W) 18:58:51 145.795 - 145.815
AAUSAT CUBESAT 2 16 Jan 19:07:12 19:11:00 36° 74° (ENE) 19:14:48 437.432
SEEDS 16 Jan 19:10:09 19:14:22 74° 259° (W) 19:18:35 437.485
CUTE 1.7 + AOD 2 16 Jan 19:13:24 19:17:21 37° 262° (W) 19:21:20 437.475
KKS-1 16 Jan 19:17:50 19:18:19 10° 294° (WNW) 19:18:48 437.445
ZACube-1 16 Jan 19:25:15 19:29:20 41° 74° (ENE) 19:33:32 437.345
AO-73 16 Jan 19:34:58 19:39:09 47° 75° (ENE) 19:43:26 145.935
STRAND 1 16 Jan 19:37:38 19:42:40 55° 101° (E) 19:47:41 437.568
FO-29 16 Jan 19:44:53 19:48:53 22° 96° (E) 19:52:54 435.910
STARS 16 Jan 19:46:18 19:48:10 13° 293° (WNW) 19:50:03 437.465
BEESAT 3 16 Jan 19:55:40 19:59:12 32° 57° (ENE) 20:02:40 437.485
RS-15 16 Jan 20:00:46 20:11:15 44° 253° (WSW) 20:21:20 29.354- 29.394
XW-2A 16 Jan 20:03:05 20:06:16 37° 261° (W) 20:09:29 145.665 - 145.685
SRMSAT 16 Jan 20:12:41 20:15:54 15° 196° (SSW) 20:19:07 437.500
Oscar 11 16 Jan 20:13:32 20:17:53 86° 78° (ENE) 20:22:16 .
CUBEBUG 2 16 Jan 20:14:02 20:15:53 12° 268° (W) 20:17:44 437.445
UWE-3 16 Jan 20:28:31 20:31:12 16° 267° (W) 20:33:56 435.000/436.395/437.385
DELFI C3 16 Jan 20:30:14 20:32:59 19° 71° (ENE) 20:35:45 145.870
HO-68 16 Jan 20:31:03 20:34:04 13° 268° (W) 20:37:06 435.675
BEESAT 2 16 Jan 20:32:10 20:35:15 21° 54° (NE) 20:38:17 435.950
PCSat 16 Jan 20:35:29 20:40:53 66° 64° (ENE) 20:46:15 145.827
Max Valier Satellite 16 Jan 20:35:46 20:37:31 13° 69° (ENE) 20:39:16 145.860
AAUSAT CUBESAT 2 16 Jan 20:44:34 20:46:30 13° 266° (W) 20:48:27 437.432
ISS 16 Jan 20:52:30 20:53:51 12° 126° (SE) 20:55:12 437.550
nSIGHT-1 16 Jan 20:57:15 20:59:45 22° 129° (SE) 21:02:15 .
TIGRISAT 16 Jan 21:01:56 21:03:51 12° 93° (E) 21:05:46 435.000
ZACube-1 16 Jan 21:03:47 21:05:46 13° 268° (W) 21:07:46 437.345
EO-88 16 Jan 21:04:57 21:07:38 20° 72° (ENE) 21:10:19 145.990 - 145.960
AO-73 16 Jan 21:14:14 21:15:35 11° 268° (W) 21:16:57 145.935
UNISAT 6 16 Jan 21:14:33 21:17:59 20° 95° (E) 21:21:24 437.425
STRAND 1 16 Jan 21:18:39 21:21:19 14° 294° (WNW) 21:24:00 437.568
FO-29 16 Jan 21:29:29 21:34:00 31° 290° (WNW) 21:38:32 435.910
BEESAT 3 16 Jan 21:34:19 21:36:22 14° 251° (WSW) 21:38:23 437.485
DELFI C3 16 Jan 22:04:24 22:07:31 23° 263° (W) 22:10:39 145.870
Max Valier Satellite 16 Jan 22:07:41 22:10:58 30° 262° (W) 22:14:18 145.860
BEESAT 2 16 Jan 22:09:38 22:12:52 24° 249° (WSW) 22:16:03 435.950
YUBILEINY 16 Jan 22:10:36 22:15:14 16° 80° (E) 22:19:51 435.215
PCSat 16 Jan 22:21:35 22:23:37 12° 257° (WSW) 22:25:39 145.827
ISS 16 Jan 22:26:54 22:29:59 41° 318° (NW) 22:33:06 437.550
nSIGHT-1 16 Jan 22:33:14 22:35:49 23° 322° (NW) 22:38:25 .
AO-85 16 Jan 22:34:02 22:39:05 72° 62° (ENE) 22:44:24 145.980
TIGRISAT 16 Jan 22:36:10 22:40:43 50° 285° (WNW) 22:45:15 435.000
AIST 2D 16 Jan 22:37:39 22:38:38 11° 94° (E) 22:39:36 435.315
EO-88 16 Jan 22:38:31 22:41:07 18° 264° (W) 22:43:43 145.990 - 145.960
LO-87 16 Jan 22:38:36 22:41:49 34° 75° (ENE) 22:45:05 145.935 - 145.965
UNISAT 6 16 Jan 22:50:30 22:54:39 32° 288° (WNW) 22:58:47 437.425
PRISM 16 Jan 22:52:35 22:56:33 52° 100° (E) 23:00:31 437.425
ESTCUBE 1 16 Jan 23:20:41 23:25:12 81° 257° (WSW) 23:29:45 437.505/2401.250
EO-79 16 Jan 23:35:31 23:38:39 20° 96° (E) 23:41:45 145.935-145.965
DUCHIFAT 1 16 Jan 23:40:37 23:43:19 16° 95° (E) 23:46:00 145.980
VELOX 1 16 Jan 23:42:19 23:45:22 19° 69° (ENE) 23:48:26 145.980
YUBILEINY 17 Jan 00:01:59 00:10:50 83° 276° (W) 00:19:42 435.215
POLYITAN 1 17 Jan 00:08:20 00:12:32 51° 100° (E) 00:16:41 437.675
AIST 2D 17 Jan 00:08:48 00:11:48 27° 286° (WNW) 00:14:46 435.315
O/OREOS (USA 219) 17 Jan 00:09:36 00:09:50 10° 98° (E) 00:10:05 437.305
SPROUT 17 Jan 00:13:35 00:17:49 88° 77° (ENE) 00:22:04 437.525
AO-85 17 Jan 00:17:21 00:19:01 11° 253° (WSW) 00:20:43 145.980
NANOSAT C BR1 17 Jan 00:28:21 00:32:38 80° 104° (ESE) 00:36:52 145.865
QB50P2 17 Jan 00:37:35 00:41:48 58° 285° (WNW) 00:45:59 145.880/145.840
AO-91 17 Jan 00:56:42 00:59:56 19° 97° (E) 01:03:21 145.960
BUGSAT 1 17 Jan 00:59:13 01:02:56 29° 98° (E) 01:06:39 437.445
Oscar 19 17 Jan 01:07:25 01:11:26 23° 96° (E) 01:15:26 437.125/150
EO-79 17 Jan 01:10:44 01:14:19 26° 288° (WNW) 01:17:52 145.935-145.965
DUCHIFAT 1 17 Jan 01:15:13 01:18:57 31° 288° (WNW) 01:22:42 145.980
VELOX 1 17 Jan 01:17:43 01:21:33 29° 262° (W) 01:25:24 145.980
NO-84 17 Jan 01:25:46 01:26:50 11° 40° (NE) 01:27:53 435.350 FM
O/OREOS (USA 219) 17 Jan 01:44:16 01:48:41 53° 291° (WNW) 01:53:06 437.305
UKube-1 17 Jan 01:45:31 01:49:41 53° 74° (ENE) 01:53:52 .
POLYITAN 1 17 Jan 01:46:43 01:47:47 11° 293° (WNW) 01:48:50 437.675
DX 1 17 Jan 01:47:30 01:51:50 80° 259° (WSW) 01:56:10 434.975-435.025
50 SAT 17 Jan 01:53:15 01:56:16 56° 260° (W) 01:59:19 437.505
Gurwin Techsat 1B 17 Jan 01:55:36 02:00:49 54° 101° (E) 02:05:59 435.225
BEESAT 17 Jan 02:02:02 02:03:43 12° 65° (ENE) 02:05:23 436.000
YUBILEINY 17 Jan 02:05:16 02:08:50 13° 293° (WNW) 02:12:26 435.215
MOZHAYETS 4 17 Jan 02:29:53 02:34:12 42° 74° (ENE) 02:38:35
AO-91 17 Jan 02:32:21 02:36:16 32° 286° (WNW) 02:40:33 145.960
BUGSAT 1 17 Jan 02:35:10 02:38:00 18° 291° (WNW) 02:40:50 437.445
Oscar 19 17 Jan 02:46:08 02:50:43 33° 289° (WNW) 02:55:16 437.125/150
ITUPSAT 1 17 Jan 02:53:39 02:58:10 44° 73° (ENE) 03:02:42 437.325
NO-84 17 Jan 03:01:12 03:04:04 40° 233° (SW) 03:07:08 435.350 FM
AO-7 17 Jan 03:35:25 03:43:36 56° 103° (ESE) 03:51:42 .
BEESAT 17 Jan 03:36:14 03:40:54 58° 259° (W) 03:45:37 436.000
Gurwin Techsat 1B 17 Jan 03:37:13 03:40:14 15° 294° (WNW) 03:43:15 435.225
ITAMSAT 1 17 Jan 03:42:22 03:47:08 36° 99° (E) 03:51:52 435.822/435.867
CUBESAT XI-V 17 Jan 03:57:46 04:02:28 85° 259° (W) 04:07:11 437.345
MOZHAYETS 4 17 Jan 04:09:04 04:11:29 14° 267° (W) 04:13:55
KKS-1 17 Jan 04:31:23 04:35:11 29° 71° (ENE) 04:38:59 437.445
ITUPSAT 1 17 Jan 04:33:34 04:36:07 14° 266° (W) 04:38:42 437.325
FALCONSAT 3 17 Jan 04:56:54 05:00:06 28° 152° (SSE) 05:03:17 435.103
ISS 17 Jan 04:58:47 05:01:18 20° 36° (NE) 05:03:48 437.550
STARS 17 Jan 05:00:21 05:03:43 22° 70° (ENE) 05:07:06 437.465
nSIGHT-1 17 Jan 05:03:00 05:05:53 31° 40° (NE) 05:08:47 .
M-CUBED/EXP-1 PRIME 17 Jan 05:09:22 05:12:43 67° 106° (ESE) 05:15:55 437.505
ITAMSAT 1 17 Jan 05:22:24 05:26:18 22° 292° (WNW) 05:30:13 435.822/435.867
AO-7 17 Jan 05:29:02 05:35:49 29° 299° (WNW) 05:42:35 .
DOVE 4 17 Jan 05:33:03 05:37:16 54° 284° (WNW) 05:41:43 437.250
XW-2F 17 Jan 05:38:09 05:40:18 15° 95° (E) 05:42:27 145.980 - 146.000
XW-2D 17 Jan 05:43:24 05:46:14 20° 96° (E) 05:49:02 145.860 - 145.880
KAITUO 1B 17 Jan 05:44:30 05:46:13 13° 94° (E) 05:47:55 145.475/437.950
SO-50 17 Jan 05:57:41 06:01:52 43° 114° (ESE) 06:06:07 436.795
XW-2B 17 Jan 06:00:20 06:03:44 32° 98° (E) 06:07:06 145.730 - 145.750
NUDT-PHONESAT 17 Jan 06:02:31 06:05:23 21° 96° (E) 06:08:13 437.300
KKS-1 17 Jan 06:08:33 06:11:41 19° 264° (W) 06:14:49 437.445
HO-68 17 Jan 06:13:09 06:18:15 21° 95° (E) 06:23:18 435.675
LilacSat-2 17 Jan 06:22:14 06:26:02 79° 101° (ESE) 06:29:47 437.200
CUTE-I 17 Jan 06:23:39 06:28:48 50° 100° (E) 06:33:57 437.470
XW-2C 17 Jan 06:30:04 06:33:50 87° 288° (WNW) 06:37:34 145.795 - 145.815
CUBEBUG 2 17 Jan 06:31:47 06:34:21 14° 93° (E) 06:36:55 437.445
ISS 17 Jan 06:34:53 06:37:46 28° 230° (SW) 06:40:38 437.550
FALCONSAT 3 17 Jan 06:35:20 06:38:59 76° 345° (NNW) 06:42:39 435.103
STARS 17 Jan 06:36:22 06:39:53 24° 263° (W) 06:43:25 437.465
nSIGHT-1 17 Jan 06:39:52 06:41:50 15° 233° (SW) 06:43:49 .
UWE-3 17 Jan 06:47:37 06:48:40 11° 92° (E) 06:49:42 435.000/436.395/437.385
STRAND 1 17 Jan 06:48:40 06:53:31 47° 73° (ENE) 06:58:23 437.568
SEEDS 17 Jan 06:59:07 07:02:34 25° 96° (E) 07:05:59 437.485
CUTE 1.7 + AOD 2 17 Jan 07:02:39 07:06:45 51° 100° (E) 07:10:48 437.475
XW-2F 17 Jan 07:11:16 07:14:21 25° 287° (WNW) 07:17:25 145.980 - 146.000
KAITUO 1B 17 Jan 07:17:00 07:20:11 28° 286° (WNW) 07:23:19 145.475/437.950
XW-2D 17 Jan 07:17:33 07:20:13 19° 289° (WNW) 07:22:53 145.860 - 145.880
ZACube-1 17 Jan 07:20:08 07:22:05 13° 92° (E) 07:24:02 437.345
AO-73 17 Jan 07:29:13 07:31:36 14° 93° (E) 07:33:57 145.935
XW-2A 17 Jan 07:29:53 07:31:58 15° 95° (E) 07:34:02 145.665 - 145.685
FO-29 17 Jan 07:34:00 07:41:08 59° 74° (ENE) 07:47:29 435.910
XW-2B 17 Jan 07:36:04 07:37:32 12° 291° (WNW) 07:39:00 145.730 - 145.750
NUDT-PHONESAT 17 Jan 07:36:35 07:39:00 17° 289° (WNW) 07:41:23 437.300
SO-50 17 Jan 07:39:43 07:42:30 16° 309° (NW) 07:45:20 436.795
HO-68 17 Jan 07:59:16 08:06:15 59° 289° (WNW) 08:13:15 435.675
RS-15 17 Jan 08:03:26 08:14:57 49° 108° (ESE) 08:26:26 29.354- 29.394
CUTE-I 17 Jan 08:05:06 08:08:23 17° 294° (WNW) 08:11:39 437.470
Oscar 11 17 Jan 08:06:14 08:09:38 22° 96° (E) 08:13:01 .
CUBEBUG 2 17 Jan 08:06:34 08:11:05 44° 286° (WNW) 08:15:34 437.445
FALCONSAT 3 17 Jan 08:14:43 08:18:16 46° 0° (N) 08:21:49 435.103
UWE-3 17 Jan 08:20:47 08:25:22 56° 285° (WNW) 08:29:53 435.000/436.395/437.385
AAUSAT CUBESAT 2 17 Jan 08:28:45 08:32:46 57° 284° (WNW) 08:36:47 437.432
STRAND 1 17 Jan 08:29:56 08:32:51 15° 266° (W) 08:35:48 437.568
SEEDS 17 Jan 08:35:03 08:38:02 19° 289° (WNW) 08:40:59 437.485
CUTE 1.7 + AOD 2 17 Jan 08:41:55 08:42:03 10° 293° (WNW) 08:42:11 437.475
ZACube-1 17 Jan 08:54:10 08:58:32 45° 286° (WNW) 09:02:49 437.345
XW-2A 17 Jan 09:02:08 09:04:31 18° 288° (WNW) 09:06:53 145.665 - 145.685
AO-73 17 Jan 09:03:41 09:07:56 40° 286° (WNW) 09:12:07 145.935
FO-29 17 Jan 09:21:11 09:26:14 20° 264° (W) 09:30:59 435.910
TIGRISAT 17 Jan 09:29:29 09:33:48 76° 77° (ENE) 09:38:14 435.000
PCSat 17 Jan 09:31:06 09:34:26 17° 105° (ESE) 09:37:48 145.827
